Wind_Speed
12 13 12 11 10 9 9 8 8 7 7 6 5 4 3 1 1 3 4 4 3 4 4 6 8 9 10 9 8 8 7 4 3 2 2 3 4 4 4 4 4 4 4 4 4 5 5 5 6 6 6 6 7 7 7 8 8 8 9 9 10 10 10 10 10 11 11 12 12 12 12 13 13 13 13 13 13 13 12 12 12 13 13 13 14
11 11 9 8 7 7 7 7 6 6 5 5 4 3 2 2 3 3 3 2 1 2 2 3 4 6 9 10 8 7 6 4 3 3 1 1 2 3 4 4 4 4 4 4 5 5 5 6 6 6 7 7 8 7 8 9 9 9 9 9 10 10 11 11 11 11 12 13 13 12 13 13 14 14 13 13 13 13 12 12 12 13 14 14 15
8 8 6 6 5 5 6 6 5 5 4 4 4 3 3 2 2 3 2 2 2 2 2 3 4 4 5 7 6 6 5 4 2 3 2 1 2 2 3 3 4 4 5 5 5 5 6 6 7 7 7 8 8 8 9 9 10 10 10 10 11 12 12 13 12 12 13 13 13 13 13 14 15 14 13 13 13 13 12 12 12 13 15 16 16
7 7 6 6 5 5 5 5 5 4 3 3 3 3 3 2 2 3 3 2 2 3 3 4 6 5 4 5 5 5 4 3 2 2 2 3 3 3 3 3 3 4 4 5 5 5 6 6 7 7 8 8 9 10 10 10 11 11 11 11 12 12 12 12 13 13 13 13 13 13 14 14 14 14 13 13 13 13 13 12 13 13 15 17 17
7 7 7 6 6 6 5 5 4 3 3 2 3 3 2 2 3 4 4 3 2 3 4 5 7 7 6 6 6 5 4 4 3 2 2 2 3 4 4 3 3 4 4 4 5 4 5 5 5 6 7 8 8 8 9 9 10 11 11 11 12 12 12 12 13 13 13 13 13 13 14 14 14 14 14 14 14 13 13 13 14 14 15 17 18
7 7 7 6 6 6 5 4 3 3 2 2 2 2 2 3 3 4 4 3 3 3 4 5 7 9 8 8 8 6 5 5 5 4 3 2 3 4 4 4 3 4 4 4 4 4 4 4 4 5 5 6 6 7 7 8 9 9 10 10 10 11 11 12 12 13 13 13 14 14 14 15 15 16 16 16 15 15 14 14 14 15 17 19 20
8 8 7 8 7 6 4 4 3 3 2 1 1 2 2 3 3 4 4 3 3 2 3 5 6 7 9 9 9 8 7 7 6 6 5 4 4 4 4 4 3 3 4 4 5 5 4 4 4 5 5 5 6 6 6 7 8 8 9 9 10 10 11 12 12 13 13 14 14 15 15 16 16 16 17 18 18 18 17 17 16 17 19 21 23
9 8 8 8 7 5 5 5 4 3 1 0 1 2 3 3 3 5 5 4 3 1 1 4 5 5 6 8 8 8 7 6 6 5 5 5 5 5 5 5 5 5 5 5 5 5 5 5 5 5 5 6 6 6 7 7 8 8 9 10 10 11 11 12 12 13 14 14 15 15 16 17 17 18 18 19 20 20 20 20 19 20 21 22 24
8 8 8 8 6 5 5 5 3 2 1 1 2 2 3 3 3 5 6 6 4 2 1 2 4 4 4 5 5 5 6 5 5 6 6 6 6 6 6 6 7 7 7 7 7 6 6 6 6 6 6 6 7 8 8 8 9 9 10 11 11 12 13 13 14 14 15 16 16 17 18 18 19 20 20 21 21 22 22 21 20 21 21 22 23
9 8 9 8 7 6 5 4 3 2 2 3 3 2 3 3 3 4 5 6 4 3 3 2 4 4 4 4 4 5 6 6 6 6 7 8 8 8 9 9 9 9 9 9 9 8 8 7 7 7 7 8 8 9 10 10 11 11 12 12 13 13 14 15 15 16 17 17 18 18 18 19 19 20 20 20 20 20 20 19 18 19 19 20 20
9 9 9 8 7 6 5 5 5 4 4 4 3 2 3 3 3 3 5 5 4 3 3 5 5 5 4 5 5 5 6 7 8 8 9 10 10 11 11 11 12 11 11 11 10 10 9 9 8 9 8 8 9 9 11 12 13 14 14 15 15 15 15 16 16 17 17 17 17 17 16 16 16 16 16 16 16 16 17 17 16 16 17 18 18
9 8 8 7 6 7 7 7 6 6 4 4 2 2 2 2 2 3 4 4 4 4 2 4 6 7 6 6 6 5 6 7 8 9 11 12 12 13 14 14 14 13 12 12 12 11 11 10 9 9 9 8 8 10 11 12 14 15 16 16 16 16 16 16 16 16 15 14 14 14 13 13 13 13 13 13 14 15 15 16 15 15 15 16 17
9 8 8 8 8 8 8 8 7 7 5 3 3 3 2 2 3 4 5 4 5 4 3 3 2 4 5 6 6 7 7 8 9 10 11 13 14 15 15 16 15 14 13 13 12 12 11 10 9 9 9 8 8 10 11 12 14 15 15 14 13 12 13 12 12 12 11 11 11 11 11 11 12 12 13 13 13 14 14 15 15 14 14 14 15
9 8 8 9 9 10 9 8 7 8 6 4 4 4 3 3 3 4 4 5 5 4 4 4 2 1 3 5 6 6 7 8 9 10 11 13 13 14 15 16 15 14 13 13 13 12 11 10 9 8 7 8 9 10 11 13 13 12 12 11 9 10 10 9 9 9 9 10 10 10 10 11 12 12 12 13 13 14 14 14 15 15 15 15 15
10 9 9 9 10 10 9 7 7 8 8 6 5 5 4 3 3 3 3 5 4 2 4 5 3 2 3 4 3 5 6 6 8 10 11 12 13 13 14 15 14 14 14 14 13 12 10 9 8 7 7 8 9 11 12 12 11 10 10 10 10 12 12 9 8 8 9 10 10 10 10 11 11 12 13 13 13 14 14 15 16 16 16 16 17
10 10 10 9 9 9 8 7 7 7 8 7 6 5 4 2 1 2 3 5 5 3 3 5 4 2 3 1 1 3 2 4 11 12 8 9 11 12 13 14 14 13 14 15 14 13 11 10 9 8 8 8 9 10 11 10 9 10 11 10 11 14 14 12 10 10 10 11 11 12 12 12 12 13 13 14 14 15 16 17 18 18 18 17 17
11 10 10 9 9 9 8 7 6 7 7 7 6 6 4 2 1 1 2 5 5 4 3 3 3 2 3 1 1 2 2 4 9 9 8 9 9 10 12 13 13 13 13 14 14 14 12 11 10 10 9 8 8 9 9 8 9 11 12 11 12 16 16 14 13 12 12 13 14 14 14 14 14 14 14 15 16 17 19 20 21 20 19 18 17
11 11 10 9 9 9 8 7 6 6 7 7 7 6 5 3 2 1 1 3 4 3 2 3 2 3 5 3 2 1 3 4 3 4 9 10 9 9 9 9 9 9 10 11 11 11 11 10 10 10 8 7 7 8 7 7 9 11 12 12 13 16 18 17 15 14 15 15 16 16 16 16 15 16 16 16 17 19 21 22 22 20 19 19 19
11 11 11 9 9 8 8 8 7 6 7 8 6 5 5 4 3 2 1 2 3 2 2 3 3 3 5 4 4 3 3 4 1 1 6 7 10 13 9 7 7 7 7 7 7 8 8 8 9 8 7 6 6 7 7 7 9 10 11 12 13 16 17 17 17 17 17 18 18 18 17 16 16 16 16 17 18 20 21 23 23 21 20 20 20
11 11 10 9 9 8 8 8 7 6 7 7 5 5 5 4 4 4 2 1 2 2 2 3 4 5 5 4 5 5 5 5 2 1 1 2 8 11 12 11 7 6 7 7 7 7 7 6 6 6 5 5 6 7 8 8 8 10 11 12 14 15 16 16 18 18 19 20 20 19 18 17 17 17 16 17 19 21 22 23 24 23 22 21 21
10 10 9 8 8 8 7 8 7 7 7 6 5 5 5 5 4 4 3 3 3 3 2 2 3 5 6 6 7 6 7 5 3 4 2 0 3 5 10 13 8 6 7 8 8 7 6 5 5 4 4 5 6 7 9 8 7 9 10 11 14 14 14 14 16 17 18 19 20 20 19 18 18 17 17 17 19 20 22 23 24 24 23 21 21
11 10 9 8 7 7 8 8 7 7 7 6 6 6 6 5 4 4 5 6 5 4 4 2 2 4 6 7 8 8 7 4 5 8 5 2 2 4 8 10 7 7 8 7 6 6 5 5 4 4 3 5 6 7 9 8 8 9 9 11 13 14 13 13 14 15 16 17 18 19 20 19 19 18 17 18 18 20 21 23 24 25 25 23 22
11 10 9 9 8 8 8 8 7 7 8 7 7 7 6 6 5 5 6 7 7 6 5 4 3 4 5 6 7 8 7 5 9 10 6 3 3 5 9 9 6 6 8 7 4 6 6 6 5 4 3 5 7 8 9 9 9 9 9 10 12 14 14 13 14 15 16 17 17 18 18 19 19 18 18 18 18 19 20 22 24 25 26 24 23
12 11 10 10 10 9 9 9 9 9 8 8 7 7 7 7 7 7 7 7 7 7 7 6 5 5 5 6 6 7 7 8 9 8 7 6 4 5 7 7 5 8 10 7 4 5 6 7 7 4 3 5 7 9 10 10 10 10 10 11 12 14 14 14 15 15 16 17 17 17 17 18 18 18 18 18 18 18 19 21 22 24 26 26 25
14 13 12 11 11 10 9 9 10 10 9 8 8 8 7 8 8 7 6 6 6 7 7 7 7 7 7 6 6 7 7 8 9 7 6 5 3 3 5 5 5 7 9 8 6 6 5 6 8 5 3 5 7 10 10 10 11 11 12 13 13 14 14 15 16 16 17 18 18 18 17 17 17 18 18 18 18 18 18 20 22 23 25 26 27
15 13 12 12 12 11 10 9 9 10 10 9 9 9 9 8 7 7 6 6 6 7 7 7 7 7 7 7 7 7 7 7 9 7 4 3 2 3 5 6 6 6 8 8 7 6 6 5 6 5 3 5 7 10 11 12 12 13 14 14 14 14 14 15 17 17 17 18 19 19 18 17 17 17 17 17 18 18 18 20 21 22 24 26 27
15 13 12 12 12 12 11 10 9 10 10 9 9 9 9 9 8 7 6 6 6 6 6 6 7 6 6 7 8 8 7 6 7 6 4 3 3 4 5 5 5 6 7 7 5 6 8 6 4 4 4 6 8 11 13 14 14 13 14 14 13 13 13 15 16 17 17 18 18 19 18 18 17 16 16 16 17 17 18 19 21 22 24 25 27
15 14 12 12 12 12 11 10 10 10 9 9 9 9 10 10 9 8 7 7 7 6 5 6 6 6 6 7 8 9 7 5 5 5 4 4 4 4 4 4 3 3 5 5 3 4 7 8 4 2 4 7 8 11 13 14 14 13 12 13 13 12 13 14 16 16 17 17 17 17 18 17 17 16 16 16 16 16 17 18 19 21 22 24 27
14 14 13 13 12 12 12 11 10 11 10 9 9 9 10 10 10 9 8 8 8 7 7 8 7 6 7 7 7 9 8 5 5 5 6 6 5 4 4 3 2 1 1 3 3 2 4 7 6 5 7 9 10 12 13 13 13 12 12 12 12 12 12 13 15 17 17 17 16 16 16 16 16 16 16 16 16 16 16 17 18 19 21 23 26
14 14 14 14 13 13 13 12 11 12 11 10 9 10 11 11 11 10 9 9 9 9 9 9 8 7 7 7 7 7 7 6 5 5 5 5 4 4 4 4 3 1 1 2 3 3 3 5 8 9 11 13 13 13 14 13 12 12 12 13 13 13 13 13 15 16 16 16 15 15 15 15 15 16 16 16 17 16 16 16 18 19 19 21 24
16 15 15 15 15 15 15 14 13 13 13 12 11 10 11 12 11 11 10 10 10 10 10 10 9 9 8 8 7 7 7 6 5 5 6 4 4 4 4 5 5 5 4 3 2 4 6 8 10 11 12 14 15 15 15 14 12 12 14 14 14 14 14 14 15 16 15 15 15 15 15 15 15 15 15 16 17 17 17 17 17 18 19 20 21
17 17 16 16 17 16 16 15 15 15 14 13 12 11 11 12 12 12 10 10 11 11 11 10 10 10 10 9 8 6 6 7 6 6 6 6 5 6 6 7 7 8 9 6 5 9 13 13 14 14 13 14 15 15 15 14 12 12 13 13 12 12 13 14 15 16 16 16 16 15 15 15 15 15 15 16 17 17 17 17 18 18 19 19 20
18 18 18 17 17 17 17 17 17 16 15 14 13 13 12 12 12 12 11 10 11 11 11 11 11 10 10 10 9 7 6 6 7 7 8 8 8 8 8 9 9 9 10 8 9 11 15 15 15 15 13 13 15 15 15 14 12 11 11 11 11 12 14 16 17 17 17 17 17 15 14 15 15 15 15 15 16 17 18 18 18 19 19 19 19
18 18 19 18 18 18 18 19 18 17 16 15 14 14 14 13 12 12 12 11 11 11 11 11 11 10 10 11 10 9 7 7 8 8 9 10 10 11 10 10 10 9 10 10 9 10 14 17 16 15 12 12 15 16 16 15 14 13 13 12 12 15 16 17 18 17 16 16 16 15 14 14 15 15 16 16 16 17 18 18 18 19 19 19 19
18 18 19 19 19 19 19 19 19 19 18 17 16 16 16 15 14 13 13 12 12 12 12 13 11 10 10 11 12 11 10 10 10 9 9 10 10 10 11 10 11 10 10 11 10 9 13 15 15 15 14 14 16 17 18 18 17 16 16 15 16 18 18 17 17 16 16 16 15 16 16 15 15 15 16 16 16 17 17 18 18 18 19 19 19
20 20 20 19 20 20 20 19 20 20 19 18 17 17 17 17 16 15 14 14 14 13 14 14 13 12 12 12 12 12 12 12 13 12 11 11 10 11 11 11 11 11 11 12 12 11 11 14 15 15 15 15 17 19 20 20 19 18 18 19 20 20 18 16 16 16 16 16 16 17 17 17 17 16 16 16 17 17 17 17 17 17 18 19 18
23 22 21 20 20 21 21 21 20 21 20 19 19 19 18 18 18 17 16 16 15 15 15 15 14 14 14 14 14 13 13 13 14 15 14 13 12 12 12 12 12 12 12 14 14 13 13 14 16 16 16 17 19 21 21 20 20 21 21 22 21 20 18 17 17 17 17 18 18 17 18 18 18 17 16 16 17 18 18 18 18 18 18 18 18
23 24 23 23 22 22 22 22 21 21 21 21 20 20 19 19 19 19 19 18 17 17 16 16 15 15 15 16 16 15 15 15 15 15 14 14 14 14 14 14 13 14 15 15 15 15 14 15 16 17 19 19 21 22 21 20 21 22 23 24 23 22 22 21 20 18 18 18 19 18 18 19 19 18 18 18 17 18 18 18 18 18 18 18 18
20 22 23 24 24 23 23 23 23 22 22 23 23 22 21 20 20 20 21 21 20 19 18 17 17 17 17 17 17 16 16 17 17 16 16 16 16 16 17 17 17 17 17 17 16 16 16 16 17 19 20 20 21 22 22 22 22 22 21 20 23 26 27 26 25 23 21 20 20 20 21 20 20 19 19 19 18 18 19 17 17 18 17 17 17
17 18 19 21 22 23 24 24 24 24 24 25 25 24 23 22 22 22 22 22 22 22 21 20 19 18 18 18 18 18 18 18 19 19 19 18 19 20 21 20 20 20 20 20 20 20 19 19 20 21 21 21 22 23 23 23 22 21 19 17 20 27 28 27 28 26 24 22 21 21 21 19 18 18 19 20 21 21 19 17 16 17 16 16 16
19 18 18 19 20 22 23 24 25 26 27 28 27 26 25 24 24 24 23 23 22 22 22 22 21 20 19 19 19 19 19 20 20 20 21 21 22 23 24 23 22 22 22 22 22 22 22 21 22 23 21 21 24 24 23 24 22 22 22 20 21 25 26 26 28 26 24 22 20 20 21 18 18 20 22 24 24 21 18 17 16 16 15 14 14
20 21 21 20 20 22 23 23 23 25 28 29 29 27 26 26 26 25 25 24 23 23 23 23 23 23 22 21 21 21 21 21 21 22 22 22 22 23 24 24 24 25 25 24 24 24 23 22 23 23 20 21 25 25 24 26 25 23 24 23 22 24 25 25 26 27 25 21 17 19 24 23 22 24 26 26 24 20 18 17 16 15 14 13 12
19 21 21 20 20 21 23 24 24 24 27 29 29 29 28 27 27 27 26 26 24 24 24 24 24 25 24 24 24 24 24 24 23 23 23 22 22 23 23 24 25 26 26 26 27 26 24 22 23 23 20 22 27 28 27 28 27 26 26 24 22 23 22 19 20 24 27 24 19 22 29 29 26 26 27 26 23 20 18 17 16 16 15 13 11
17 18 19 19 18 18 19 22 23 24 25 26 27 29 29 29 29 28 28 27 27 26 26 26 26 26 26 27 27 27 27 27 26 26 25 24 23 23 23 24 24 26 26 26 26 26 24 24 24 24 23 24 28 30 30 29 27 27 26 25 23 23 22 19 19 23 28 29 24 23 28 32 29 27 28 27 24 21 19 17 17 16 16 15 13
12 14 16 16 16 16 16 17 19 22 24 25 25 27 28 29 29 28 28 28 28 28 28 28 28 28 28 28 28 28 28 27 27 27 27 26 26 25 25 25 25 26 26 26 25 25 26 25 25 27 27 27 28 30 31 29 27 26 27 28 27 25 24 23 24 27 31 31 27 22 26 32 31 27 29 28 25 24 21 18 17 16 16 16 14
7 8 10 11 12 12 13 13 13 15 17 19 22 24 25 27 28 27 27 27 28 29 29 29 29 29 29 29 29 29 29 28 28 28 28 28 28 28 28 28 28 27 27 28 28 28 29 28 27 28 29 29 30 31 32 31 30 29 29 30 30 28 28 28 28 31 33 33 28 19 20 29 30 25 28 29 27 26 24 19 17 17 16 16 13
3 2 3 5 7 8 9 9 9 9 9 10 12 15 18 21 23 24 25 26 27 28 29 29 29 30 30 30 30 31 30 30 30 30 30 30 30 30 30 30 30 30 30 30 29 29 30 30 30 31 31 32 32 33 34 33 33 33 32 30 29 29 29 30 30 33 34 33 28 16 15 26 29 25 28 30 27 25 23 19 17 17 15 14 13
5 4 2 2 3 4 5 6 6 6 5 4 5 7 10 14 17 19 21 22 24 26 27 28 28 28 29 29 31 31 31 31 30 30 31 32 31 31 32 32 33 33 32 31 29 29 30 31 32 33 32 33 33 33 34 34 34 34 33 31 30 29 27 26 28 32 33 32 29 18 15 24 29 24 26 28 25 24 24 20 16 15 13 12 12
7 7 7 6 6 6 5 3 3 3 3 4 4 4 7 10 13 16 18 19 21 22 23 24 24 24 25 26 27 28 30 30 29 29 30 31 31 32 33 34 34 34 34 33 32 32 32 31 32 32 31 31 31 32 33 33 32 32 31 30 31 29 24 20 21 26 29 32 32 22 16 22 27 24 24 24 22 23 24 22 18 15 13 12 12
6 5 6 8 9 9 8 5 4 6 5 4 5 5 4 8 12 16 17 17 18 20 21 21 21 21 22 23 23 24 27 27 28 28 29 30 32 32 33 33 33 33 35 35 34 34 33 31 31 31 30 31 31 32 32 31 30 29 29 31 31 28 23 20 20 23 27 33 33 22 14 19 22 20 19 19 20 24 25 23 20 16 12 12 13
7 5 5 5 7 8 8 5 6 8 8 7 7 6 4 5 11 15 18 17 17 18 18 18 18 18 18 18 19 20 22 23 24 25 26 27 30 32 32 31 31 32 35 34 32 31 32 31 31 31 31 31 32 32 32 31 29 28 28 30 30 27 25 25 25 19 16 24 27 17 11 16 19 18 16 13 13 18 22 21 19 17 15 15 16
Wind_Direction
138 137 136 135 136 137 139 141 142 141 140 139 141 138 133 101 13 348 341 332 295 249 232 221 221 221 227 240 247 246 250 262 308 312 243 240 250 259 272 278 284 288 292 290 281 280 283 285 286 282 277 278 277 277 281 284 284 285 287 289 292 291 288 287 286 289 291 292 293 290 289 288 289 291 293 293 290 288 288 288 286 281 276 274 274
146 144 143 141 143 146 149 152 151 145 137 131 127 112 80 43 18 360 357 348 298 229 214 217 218 218 223 233 241 245 248 259 312 342 321 262 278 282 288 292 294 294 296 298 293 289 290 290 291 287 284 283 280 281 284 287 288 287 288 288 292 293 291 289 288 291 291 291 291 289 291 291 291 292 292 291 289 288 286 286 287 281 274 268 267
159 162 165 162 158 158 160 163 160 150 138 128 113 90 75 55 30 14 9 340 291 229 229 262 248 216 213 222 226 230 238 253 308 357 19 45 24 341 316 309 308 306 305 303 303 300 295 293 292 289 288 287 286 289 289 288 289 290 289 287 289 289 288 289 288 288 288 290 291 290 292 294 294 295 294 294 292 291 288 287 286 283 278 270 264
177 181 185 181 173 170 167 166 162 152 139 123 103 85 84 61 27 11 359 326 275 228 232 261 258 244 231 226 223 225 233 246 278 350 22 49 47 32 14 350 338 331 323 314 309 303 299 295 294 293 290 289 287 288 288 286 286 287 287 286 286 285 285 288 288 288 290 292 293 293 295 295 296 297 297 296 295 295 292 288 285 282 281 276 271
192 190 192 191 185 179 173 171 168 156 139 113 89 68 56 26 355 348 340 311 264 235 243 254 252 251 249 245 240 241 248 254 262 292 341 29 41 32 24 14 10 3 351 338 322 310 307 304 302 302 299 298 296 296 296 294 292 291 291 290 292 293 293 293 292 295 297 298 298 297 299 300 301 301 301 300 298 297 295 293 290 286 284 281 279
201 195 192 191 188 180 174 175 179 167 146 111 76 44 14 344 334 339 334 307 271 256 266 257 242 245 250 254 255 257 264 270 271 273 295 329 6 8 6 2 3 3 358 353 340 327 320 319 322 321 318 317 316 317 315 312 309 307 306 306 307 308 307 305 305 306 307 306 306 306 306 306 307 307 306 305 302 299 296 295 294 291 289 286 284
192 189 186 184 183 181 178 179 179 168 155 121 50 13 343 332 345 359 354 321 283 268 264 245 236 243 249 255 259 263 271 277 276 274 283 302 327 342 339 330 326 328 332 336 338 333 324 324 333 336 339 340 337 335 330 327 325 322 321 320 319 318 316 315 313 313 313 313 312 312 311 310 309 309 307 307 305 302 300 298 296 293 293 291 290
180 180 183 184 187 188 184 180 176 168 171 90 352 336 327 336 1 8 7 358 334 312 237 235 232 231 236 249 257 263 272 275 277 280 280 288 310 323 319 311 304 303 306 310 317 323 321 318 323 331 336 338 338 335 332 330 328 328 327 325 323 321 319 318 316 316 315 315 314 313 312 311 310 308 306 305 304 304 303 302 300 298 297 295 294
182 186 190 194 196 192 186 182 182 189 238 300 303 311 332 346 5 7 10 9 352 325 293 229 209 211 226 247 257 263 272 279 287 287 281 286 298 306 309 308 304 302 301 301 302 306 310 311 312 316 322 326 327 326 325 325 324 324 324 323 323 320 319 317 316 316 315 314 314 312 311 309 307 305 303 304 303 305 306 306 306 304 302 299 298
189 193 194 197 198 196 196 199 212 230 255 275 271 296 342 350 359 359 360 6 356 316 298 244 208 223 236 254 277 275 274 286 295 285 281 291 297 301 306 305 303 303 302 302 302 300 301 303 305 308 314 318 320 321 319 318 318 316 316 317 318 318 319 319 319 318 317 317 315 312 310 308 306 305 305 307 308 310 311 311 310 308 307 306 305
192 193 194 199 203 207 213 220 229 233 246 256 253 284 327 338 340 335 351 6 6 336 283 249 244 252 253 261 277 279 274 284 292 285 282 290 297 301 304 302 301 301 300 301 303 303 303 301 302 306 313 318 318 320 320 319 319 318 317 315 314 316 317 319 320 321 320 319 317 315 314 313 313 313 315 316 317 319 318 318 316 314 315 315 317
196 198 199 203 210 216 219 225 231 230 238 246 245 279 308 318 304 313 346 16 24 14 331 277 260 253 260 263 267 275 273 277 284 285 286 290 296 300 301 301 298 296 298 301 301 303 306 306 305 307 313 319 321 322 325 327 328 328 327 324 321 318 317 318 319 320 320 320 321 322 322 323 324 324 324 324 323 323 322 322 322 321 322 322 323
202 206 208 211 214 216 217 223 229 227 233 243 246 269 300 297 277 300 336 6 23 30 21 353 270 256 274 275 281 282 274 278 282 283 285 288 293 295 298 298 294 294 298 300 300 301 305 308 308 310 314 317 325 332 334 336 338 338 337 335 331 327 324 321 319 320 323 326 329 330 331 331 331 329 328 328 327 327 327 328 328 328 328 327 328
201 207 212 214 215 214 217 224 230 228 229 240 250 261 277 279 276 292 325 354 12 27 12 3 4 350 340 322 322 317 299 294 289 284 282 284 287 289 291 290 289 294 298 298 299 300 303 307 307 310 316 320 331 341 343 345 345 343 346 349 351 353 349 336 329 331 336 338 337 337 340 340 339 337 335 335 334 334 334 336 336 335 337 338 337
201 206 210 213 213 214 218 224 228 227 228 239 248 254 258 267 294 299 319 343 355 11 358 357 357 6 17 355 347 348 330 322 316 302 288 284 283 282 284 284 286 292 295 295 297 297 298 302 302 306 316 324 334 343 346 348 350 351 357 5 12 13 8 358 351 351 351 352 350 349 350 350 349 345 343 342 341 343 344 345 344 342 343 345 343
205 209 210 211 211 213 214 217 220 220 225 237 246 253 247 241 290 303 330 343 347 341 334 356 356 353 26 11 26 19 338 325 331 322 306 293 286 281 281 282 286 289 289 290 293 296 295 294 296 302 311 320 331 342 344 347 358 2 1 6 16 17 13 9 6 3 5 6 4 1 358 358 356 353 351 350 351 354 354 351 349 347 348 350 351
209 212 214 216 216 216 215 214 219 218 224 236 248 252 233 208 213 252 343 351 351 336 312 351 3 10 28 23 12 16 264 310 335 329 329 319 302 296 290 286 288 288 287 288 290 293 292 291 294 298 307 316 327 338 339 348 5 6 1 6 16 17 14 11 9 8 11 12 9 7 4 2 0 358 357 357 358 358 357 355 352 352 355 357 1
212 216 217 221 225 224 221 221 225 224 228 238 247 245 222 210 224 219 352 351 345 335 313 345 12 15 15 10 2 329 272 318 344 324 333 338 340 336 318 302 295 288 289 291 292 292 289 293 295 291 295 307 322 333 335 349 8 7 1 6 17 19 16 14 14 13 14 12 10 8 7 6 4 2 0 358 359 358 358 359 358 359 2 3 5
213 216 218 223 227 227 226 228 233 231 231 238 243 233 220 229 242 239 310 335 331 336 336 355 18 16 16 21 8 1 334 337 328 308 333 339 354 6 8 341 306 290 291 294 300 299 292 295 295 283 283 300 314 326 332 347 6 9 4 6 15 21 19 16 17 17 16 13 11 10 9 8 6 3 1 359 358 359 0 1 2 4 5 6 7
210 212 215 222 226 228 230 231 235 235 229 230 234 228 230 243 243 246 268 295 309 321 345 10 19 8 9 13 3 2 355 345 329 333 305 303 338 2 14 3 332 300 291 288 298 303 302 298 288 276 277 299 310 323 334 343 359 7 6 5 11 18 19 18 17 17 18 16 14 12 9 7 5 3 2 360 358 360 2 2 4 7 7 7 7
206 206 210 222 228 230 234 234 234 233 224 219 220 224 235 244 243 248 255 266 288 297 306 351 11 1 358 1 1 356 349 350 359 3 27 10 311 329 358 4 3 340 311 295 287 288 303 295 273 268 280 307 314 323 336 342 353 4 6 3 6 13 16 16 13 12 13 15 15 14 11 6 4 3 1 360 1 1 2 2 3 6 6 7 7
206 206 214 227 232 232 236 236 233 227 221 217 217 224 236 244 248 249 254 271 281 281 282 285 323 345 351 356 358 358 357 350 344 349 358 12 313 299 339 354 357 353 345 326 287 269 291 287 263 266 294 328 323 324 341 347 350 359 2 359 359 4 11 12 8 4 3 6 11 12 12 9 4 2 360 359 1 1 2 2 2 3 5 5 6
212 215 221 230 234 235 235 235 232 225 224 226 225 231 242 247 246 246 258 272 272 265 269 266 275 310 335 348 351 354 355 333 326 333 329 331 321 305 332 344 340 351 1 350 301 272 280 276 271 275 316 337 322 327 349 354 352 355 356 352 351 356 3 6 3 358 355 357 1 4 9 10 7 4 1 359 359 359 0 1 2 2 2 2 3
220 224 228 230 234 237 235 233 230 229 231 234 236 242 250 248 243 249 262 266 260 256 260 260 267 288 314 333 341 340 341 339 337 333 319 320 306 298 332 347 342 351 4 6 337 309 290 270 268 272 321 336 326 335 349 352 351 351 349 345 343 347 356 1 358 353 350 349 352 355 360 4 7 5 3 1 358 358 359 1 2 1 0 0 1
223 227 231 233 237 239 238 233 230 232 236 240 242 246 250 246 245 252 256 258 260 263 263 262 271 287 305 319 329 330 337 346 347 338 322 317 300 312 344 349 338 344 356 7 2 344 324 282 271 265 313 340 339 343 345 341 338 337 338 339 338 340 347 355 353 349 346 343 343 346 349 354 0 3 4 4 0 358 358 360 1 0 360 359 358
227 230 233 237 241 242 240 237 232 232 234 239 243 245 244 242 246 249 252 263 272 273 272 269 271 281 299 314 320 326 337 348 351 350 347 341 335 356 4 354 347 346 349 2 13 13 2 322 282 259 286 325 332 337 336 328 325 324 327 331 333 334 339 347 349 347 346 341 337 338 340 343 349 355 360 3 2 359 358 358 360 360 360 358 357
231 235 237 240 244 245 240 238 234 227 226 231 239 244 243 242 248 250 252 265 267 263 268 273 272 275 291 309 315 322 333 344 356 9 25 23 14 15 21 19 5 348 342 352 15 26 16 355 305 260 279 306 318 330 333 326 320 319 321 326 328 329 331 339 345 347 347 343 337 335 334 336 339 343 349 356 360 360 358 356 357 359 360 359 357
234 237 239 242 246 246 241 237 233 225 222 227 236 243 244 245 250 251 251 256 256 256 265 274 277 279 288 303 311 318 327 331 342 357 357 351 1 3 11 35 42 356 340 339 346 13 16 11 1 286 305 325 326 331 337 334 327 319 319 323 325 325 329 335 340 345 346 344 341 336 333 333 333 334 338 344 350 355 357 355 354 356 358 358 358
235 238 243 244 246 247 241 236 235 232 230 232 236 238 239 243 246 245 245 252 257 261 268 273 274 278 283 294 307 315 321 320 323 341 339 329 339 343 339 356 32 63 343 326 308 302 352 3 3 347 336 338 334 332 334 335 332 324 317 318 321 324 328 329 331 335 338 339 340 338 335 333 331 330 330 333 338 344 351 352 350 351 354 357 357
235 240 244 244 245 246 242 238 240 241 239 238 238 235 235 237 240 240 240 246 257 260 264 268 269 272 277 283 297 309 317 321 320 331 335 329 330 337 337 336 340 335 220 251 286 295 321 340 344 344 339 339 340 338 334 330 326 321 315 314 318 321 323 323 325 329 332 333 334 336 337 335 331 329 327 327 330 334 340 345 345 345 348 352 355
236 238 243 243 243 243 241 241 243 244 242 240 238 237 235 235 235 236 237 243 253 256 255 259 261 267 273 275 285 298 307 315 320 322 324 325 321 323 334 332 326 315 290 261 263 298 309 316 325 334 336 336 339 340 337 329 318 312 311 313 316 320 322 323 325 328 331 330 326 327 331 332 331 330 328 326 325 327 331 335 337 339 341 345 349
238 237 241 244 244 242 242 243 243 243 243 240 238 238 239 239 237 236 236 241 250 252 250 252 255 262 267 267 273 287 296 301 306 310 307 307 304 303 312 320 321 313 299 275 252 282 301 309 316 324 329 329 331 337 339 334 326 318 313 313 319 324 327 328 326 327 329 330 327 323 323 325 327 328 328 327 325 324 326 329 331 332 334 337 341
241 239 241 245 246 245 245 246 245 242 242 240 238 238 240 243 244 242 240 241 246 250 250 249 249 254 260 260 261 270 285 290 294 299 300 298 294 291 296 303 311 319 312 287 264 279 297 306 313 320 324 323 325 334 341 337 334 331 323 321 325 326 327 327 325 325 327 330 330 325 321 321 323 324 325 325 325 323 323 325 327 327 328 331 334
244 241 241 245 247 248 248 248 247 244 243 243 240 240 242 243 245 246 246 246 246 248 249 248 246 247 252 254 253 255 266 277 280 286 292 293 289 286 289 292 297 310 318 304 278 273 289 300 309 314 318 320 320 327 335 333 330 328 325 323 323 324 326 326 324 324 326 327 325 322 320 319 319 322 323 323 323 322 322 323 324 324 325 326 329
245 244 245 248 249 250 250 249 248 245 245 247 246 246 247 246 246 247 248 249 250 250 248 248 250 252 252 251 249 250 256 264 268 272 280 285 285 284 288 291 290 294 309 310 295 277 283 295 305 309 312 315 315 320 326 325 321 321 319 319 321 324 326 326 325 325 325 323 317 314 315 316 316 319 322 324 324 321 320 321 321 321 322 322 325
245 247 250 252 250 250 250 249 248 246 246 248 249 250 250 250 250 252 252 252 254 255 253 253 256 258 260 257 253 253 255 258 261 264 269 273 274 279 287 291 286 284 293 302 300 291 284 288 297 304 307 310 312 315 318 318 317 317 317 318 323 327 327 324 320 322 326 326 319 312 309 309 310 313 317 322 325 323 320 321 320 318 319 319 321
247 248 249 251 251 251 251 251 250 247 247 248 250 251 252 251 252 256 258 256 256 258 259 262 262 260 262 265 266 265 264 262 261 262 268 270 268 273 282 286 284 284 289 293 295 295 287 285 293 301 304 305 307 309 312 314 316 318 320 324 327 329 328 325 319 317 321 324 322 318 311 306 303 304 309 316 322 324 322 320 320 318 317 317 318
249 249 248 249 250 250 252 253 252 249 246 247 249 252 254 254 253 255 259 260 260 260 261 265 268 266 265 268 272 273 272 270 267 266 269 272 272 274 278 281 283 287 289 287 288 291 288 285 289 294 298 300 301 305 309 311 311 313 319 325 329 330 329 328 323 319 318 318 319 321 318 313 305 299 302 309 316 322 323 320 320 318 316 316 316
249 249 249 250 251 250 251 252 251 250 247 246 248 251 253 254 254 254 257 260 261 261 261 264 267 268 269 271 273 273 273 273 272 272 274 276 277 277 278 279 281 283 284 282 282 285 284 282 283 286 290 294 295 299 305 308 307 309 314 319 324 329 331 330 325 321 318 315 314 315 317 317 312 303 302 306 310 317 320 317 317 318 317 316 316
245 247 248 250 252 252 253 253 252 251 249 248 248 249 251 253 253 254 256 259 260 261 261 263 265 267 269 271 273 274 274 274 273 274 275 276 279 280 279 279 279 280 281 280 280 282 281 279 281 283 285 288 290 295 301 304 305 311 317 314 313 321 326 327 324 321 319 318 316 314 314 316 314 308 305 306 309 315 316 316 318 320 319 318 317
246 247 247 249 251 251 253 254 253 251 250 250 251 251 252 252 252 254 256 257 258 259 260 262 263 265 267 270 273 276 278 278 277 277 277 277 280 281 282 282 283 284 284 283 282 282 281 280 280 282 283 284 288 292 297 301 303 309 314 310 308 317 321 321 323 323 320 320 320 317 316 317 313 310 308 308 312 316 318 319 323 326 324 321 318
246 246 246 249 252 252 252 253 254 253 250 251 253 254 255 255 255 255 256 257 258 258 260 262 262 263 265 267 271 274 277 279 278 278 279 280 281 281 282 284 286 287 286 285 284 283 281 279 280 282 281 281 287 290 293 298 302 305 308 308 309 316 320 319 321 323 322 324 325 318 315 315 311 309 311 313 315 319 320 321 325 328 329 326 320
245 244 243 247 252 255 254 252 254 253 251 252 254 255 256 256 256 256 258 260 260 259 261 263 264 265 265 267 270 273 274 274 274 274 275 277 279 281 282 284 286 287 284 283 284 284 281 279 279 281 277 277 286 291 291 295 299 301 305 306 306 311 314 312 311 313 318 321 320 313 312 313 312 310 313 316 317 319 319 319 321 323 327 330 324
241 242 242 244 249 254 253 250 251 252 252 253 254 256 256 256 255 256 258 260 261 261 263 265 267 268 268 269 273 275 276 275 274 273 273 273 275 277 280 283 285 286 286 283 282 283 281 279 278 278 278 277 283 288 290 292 296 299 301 301 301 303 304 299 293 299 310 314 312 309 309 312 313 310 311 315 317 318 317 316 315 316 320 327 325
239 240 242 243 246 250 251 249 249 250 253 254 255 256 256 256 256 256 258 259 260 261 264 266 268 270 271 273 275 277 279 279 279 278 277 276 277 277 279 280 281 283 284 283 283 284 284 281 276 277 283 282 280 286 292 291 290 293 294 295 297 298 297 294 292 297 306 309 307 304 304 308 311 309 308 313 317 317 316 313 309 306 308 314 317
243 243 246 245 246 246 247 248 247 247 251 254 255 256 256 257 258 259 259 260 260 261 263 264 267 270 272 274 276 279 282 283 283 283 282 282 282 282 281 281 281 281 282 282 284 285 286 285 280 281 288 288 285 290 297 294 289 289 290 292 295 296 294 292 293 297 301 303 304 298 294 303 310 307 304 312 318 317 316 313 306 302 301 303 306
247 247 257 253 253 249 247 249 249 247 249 254 257 258 256 256 257 259 260 261 261 261 262 263 265 269 272 273 275 278 281 283 284 284 284 284 284 284 284 283 283 283 283 283 284 285 286 286 285 286 290 292 291 293 297 296 293 293 292 291 292 292 291 292 293 294 297 301 303 292 279 298 308 303 301 311 317 316 317 316 308 303 298 294 295
287 286 304 308 297 277 257 254 257 253 251 258 269 272 269 262 258 258 259 260 261 262 263 264 266 270 273 274 274 276 278 280 283 284 285 284 282 282 283 283 284 284 283 282 282 282 283 283 284 286 287 289 291 292 293 293 291 292 291 288 288 287 286 288 290 292 296 301 303 293 276 293 302 297 299 310 314 313 316 317 310 303 295 288 289
314 295 286 287 295 297 291 285 291 287 262 248 260 284 296 292 280 270 265 264 265 266 267 269 271 273 275 276 277 278 278 279 282 284 285 284 281 280 280 281 282 282 282 283 283 283 282 281 283 284 285 287 290 292 292 290 289 289 285 281 283 284 281 281 283 288 294 298 300 296 278 284 296 295 296 307 311 310 314 316 311 302 291 285 286
336 318 296 284 280 284 286 294 329 329 303 269 257 255 280 307 305 296 285 276 274 274 274 275 276 277 278 279 280 281 281 282 283 284 286 285 281 280 279 279 279 278 280 283 284 283 283 284 285 287 289 291 294 295 295 293 291 289 281 278 283 282 274 271 274 282 291 294 297 298 275 278 295 298 294 302 306 304 307 311 310 304 293 287 286
344 338 322 304 293 293 292 302 335 336 326 313 291 273 281 318 316 310 301 290 284 284 284 285 284 284 284 285 285 285 285 287 288 288 289 288 285 283 281 279 276 276 279 282 282 283 286 288 291 293 294 296 297 297 297 296 295 292 285 283 285 279 270 270 273 275 285 292 297 301 281 281 297 299 293 296 300 301 304 305 304 302 295 290 287
Height
866 866 867 868 868 869 869 870 870 870 871 871 871 871 872 872 872 871 871 871 870 870 870 870 870 870 870 869 869 869 869 869 869 869 868 868 868 868 868 868 867 867 867 867 867 866 866 866 865 865 865 865 865 864 864 864 863 863 863 863 862 862 862 861 861 861 860 860 859 859 858 857 857 856 855 855 855 855 854 854 854 853 852 850 849
868 868 868 869 869 870 870 871 871 871 872 872 872 872 872 872 872 871 871 871 871 871 870 870 870 870 870 870 869 869 870 870 870 869 869 869 868 868 868 868 868 867 867 867 867 867 866 866 866 865 865 865 865 864 864 864 863 863 863 863 862 862 862 861 861 860 860 859 858 858 857 857 856 855 855 854 854 854 854 853 853 852 850 849 847
869 869 870 870 870 871 871 871 872 872 872 872 872 872 872 872 872 872 872 871 871 871 871 871 870 870 870 870 870 870 870 870 870 870 869 869 869 868 868 868 868 868 867 867 867 867 867 866 866 866 865 865 864 864 864 863 863 863 863 863 862 862 861 861 860 860 859 858 858 857 857 856 855 855 854 854 854 854 853 853 852 850 848 847 845
870 870 871 871 871 872 872 872 872 872 873 873 873 873 873 873 872 872 872 872 872 871 871 871 870 870 870 870 870 870 870 870 870 870 870 870 869 869 869 869 868 868 868 868 867 867 867 867 866 866 865 865 864 864 864 863 863 863 863 862 862 861 861 860 860 859 858 858 857 856 856 855 855 854 854 853 853 853 852 852 851 849 847 845 843
870 871 871 872 872 872 873 873 873 873 873 873 873 873 873 873 873 873 872 872 872 872 872 871 871 871 870 870 870 870 871 871 871 871 871 870 870 870 869 869 869 869 869 868 868 868 867 867 866 866 865 865 864 864 863 863 863 862 862 862 861 861 860 860 859 858 858 857 856 856 855 855 854 854 853 853 852 852 851 850 849 848 845 843 842
870 871 872 872 872 873 873 873 873 873 873 873 873 873 873 873 873 872 872 872 872 872 872 871 871 871 871 871 871 871 871 871 871 871 871 871 871 870 870 870 870 869 869 869 869 868 868 867 866 866 865 865 864 864 863 863 863 862 862 861 861 860 860 859 858 858 857 856 856 855 855 854 853 853 852 852 851 851 850 849 848 846 844 841 840
871 871 872 873 873 873 874 874 874 874 874 874 874 874 874 873 873 873 872 872 872 872 872 871 871 871 871 871 871 871 871 871 872 871 871 871 871 871 871 870 870 870 870 869 869 869 868 867 867 866 866 865 865 864 864 863 863 863 862 862 861 860 860 859 858 858 857 856 856 855 854 853 853 852 851 851 850 849 849 848 847 845 843 840 837
871 872 872 873 873 874 874 874 874 874 875 874 875 874 874 874 873 873 873 873 872 872 872 872 872 872 871 871 871 872 872 872 872 872 872 871 871 871 871 871 870 870 870 870 869 869 868 868 867 867 866 866 865 865 864 864 864 863 863 862 861 861 860 859 858 858 857 856 855 854 854 853 852 851 851 850 849 848 847 847 846 844 842 839 836
871 872 873 873 874 874 874 875 875 875 875 875 875 875 875 875 874 874 873 873 873 872 872 872 872 872 872 872 872 872 872 872 872 872 872 872 871 871 871 871 871 871 870 870 869 869 869 868 868 867 867 866 866 865 865 864 864 863 863 862 862 861 860 859 858 857 857 856 855 854 853 852 851 850 849 848 847 847 846 845 844 842 840 838 835
872 872 873 874 874 874 875 875 875 875 875 875 875 876 875 875 874 874 874 873 873 873 873 873 872 872 873 873 873 872 872 872 872 872 872 872 872 872 871 871 871 871 870 870 870 869 869 868 868 867 867 867 866 865 865 865 864 864 863 862 862 861 860 859 858 857 856 855 854 853 852 851 850 849 848 847 846 845 844 843 842 841 839 837 834
872 872 873 874 874 874 875 875 875 875 876 876 876 876 875 875 875 874 874 874 873 873 873 873 873 873 873 873 873 873 873 873 873 872 872 872 872 872 871 871 871 870 870 870 869 869 869 868 868 868 867 867 866 865 865 864 864 863 863 862 861 860 860 859 858 857 855 854 853 852 851 850 849 848 847 846 845 844 843 842 841 839 838 836 834
872 872 873 874 874 874 875 875 875 875 876 876 876 876 876 876 875 875 875 874 874 873 873 873 873 873 873 874 874 874 873 873 873 872 872 872 872 872 871 871 871 870 870 870 870 869 869 869 868 868 867 866 866 865 865 864 864 863 862 862 861 860 859 858 857 856 855 854 853 851 850 849 848 847 846 845 844 843 842 841 839 838 837 835 833
871 872 873 873 874 874 875 875 875 876 876 876 876 876 876 876 876 876 875 875 874 874 874 874 874 874 874 874 874 874 874 873 873 873 872 872 872 872 871 871 870 870 870 870 869 869 869 869 868 868 867 866 866 865 865 864 864 863 862 861 860 859 858 857 856 855 854 853 852 851 850 849 848 846 845 844 843 842 841 840 838 837 836 834 832
871 872 873 873 874 874 875 875 875 876 876 876 876 876 876 876 876 876 876 875 875 875 875 875 874 875 874 874 874 874 873 873 873 873 872 872 872 871 871 871 870 869 870 869 869 869 869 869 868 868 867 867 866 865 865 864 864 863 862 861 860 859 858 857 856 855 854 853 852 851 850 848 847 846 845 844 843 842 840 839 838 836 835 834 832
871 872 873 873 874 874 874 875 875 875 876 876 876 877 877 877 877 877 876 876 876 875 876 875 875 875 875 876 877 876 875 873 872 873 872 872 871 871 871 870 870 869 869 869 869 869 869 869 868 868 867 867 866 865 865 865 864 864 863 862 860 859 858 856 855 854 853 853 852 851 850 848 847 846 845 844 842 841 840 839 837 836 834 833 831
871 872 872 873 873 874 874 875 875 875 876 876 876 877 877 877 877 877 877 876 876 876 876 876 876 876 877 878 878 879 880 876 872 871 871 871 871 870 871 870 869 869 869 869 869 869 869 869 868 868 867 867 866 866 865 865 864 864 863 862 861 859 858 857 855 854 853 852 851 850 849 848 847 845 844 843 842 841 840 838 837 835 834 832 830
871 872 872 873 873 874 874 874 875 875 875 876 876 877 877 877 877 877 877 877 877 876 876 876 877 877 877 879 880 882 882 878 875 873 870 871 871 870 870 870 869 869 869 868 868 868 868 868 868 868 868 867 866 866 865 865 865 864 863 862 861 860 858 857 856 854 853 852 851 850 849 848 846 845 844 843 842 840 839 838 836 834 833 831 830
871 872 872 873 873 874 874 874 875 875 875 876 876 877 877 877 877 878 878 877 877 877 877 877 877 877 877 878 879 881 880 877 878 877 872 870 870 870 870 869 868 868 868 868 868 868 868 868 868 868 867 867 866 866 866 866 865 864 864 863 861 860 859 858 856 855 853 852 851 850 849 848 846 845 844 843 842 841 839 837 836 834 833 831 830
870 871 872 873 873 874 874 874 875 875 875 876 876 877 877 877 878 878 878 878 878 878 877 877 877 878 878 878 878 878 878 877 878 879 878 874 871 870 870 869 868 868 868 868 868 868 868 868 868 867 867 867 866 866 866 866 865 865 864 863 862 861 860 858 857 855 854 852 851 850 849 848 847 846 845 843 842 841 839 837 836 834 832 831 829
870 871 872 872 873 874 874 874 875 875 875 875 876 877 877 877 878 878 878 878 878 878 878 878 878 878 878 878 878 878 878 877 877 878 880 879 874 871 870 869 868 868 868 868 868 868 868 868 868 868 867 867 867 867 866 866 866 865 864 863 862 861 860 859 858 856 855 853 852 850 849 848 847 846 845 844 843 841 839 837 836 834 832 831 830
870 870 871 872 873 873 874 874 874 875 875 875 876 876 877 877 878 878 878 878 879 878 878 878 878 878 878 878 878 878 877 877 877 877 877 879 878 874 871 870 869 868 868 868 868 868 868 868 868 868 868 867 867 867 867 866 866 865 865 864 863 862 861 860 859 857 856 855 853 852 850 849 848 847 845 844 843 841 840 838 836 834 833 831 830
869 870 871 871 872 873 873 874 874 875 875 875 876 876 877 877 878 878 878 879 879 879 878 878 878 878 879 879 878 878 878 877 877 877 876 877 878 875 873 872 871 869 869 868 868 868 868 868 868 868 868 867 868 867 867 866 866 865 865 864 864 863 862 861 859 858 857 856 854 853 851 850 849 847 846 845 844 842 840 839 837 835 833 831 830
869 869 870 871 871 872 873 873 874 875 875 875 876 876 877 877 878 878 878 878 878 878 879 879 879 879 879 879 879 879 879 878 877 877 877 877 877 876 874 873 872 871 870 869 869 869 869 868 868 869 869 868 868 868 867 866 866 866 865 865 864 864 862 861 860 859 857 856 855 854 852 851 850 848 847 845 844 843 841 839 837 835 833 832 830
868 869 869 870 871 872 872 873 873 874 875 875 876 876 876 877 877 878 878 878 878 878 879 879 879 879 879 879 879 879 879 878 877 876 876 876 876 875 874 873 872 871 870 870 869 869 869 869 869 869 869 869 868 868 867 867 866 866 866 865 865 864 863 861 860 859 858 856 855 854 853 852 850 849 847 846 845 843 842 840 838 836 834 832 830
868 868 869 870 870 871 872 872 873 873 874 875 875 876 876 876 877 877 878 878 878 878 878 879 879 879 879 879 879 879 879 878 877 876 876 875 875 875 874 874 873 871 871 870 869 869 869 869 869 869 869 869 869 868 868 867 867 866 866 865 865 864 863 862 860 859 858 857 855 854 853 852 851 850 848 847 845 843 842 840 839 837 835 833 831
867 868 868 869 870 870 871 872 872 873 873 874 875 875 876 876 876 877 877 878 878 878 878 878 879 879 879 879 879 879 879 878 877 876 876 876 875 875 874 874 873 872 871 871 870 869 869 869 869 869 870 869 869 869 868 867 867 866 866 865 864 864 863 862 860 859 858 857 855 854 853 852 851 850 849 847 845 844 842 841 839 838 836 834 831
867 867 868 869 869 870 871 871 871 872 873 873 874 875 875 875 876 876 877 877 877 878 878 878 878 879 879 879 879 879 879 878 878 877 876 876 876 876 875 875 875 874 872 871 871 870 870 869 869 870 870 869 869 868 868 867 866 866 865 865 864 863 862 861 860 859 858 856 855 854 853 852 851 850 849 847 846 844 843 841 839 838 836 834 832
866 867 868 869 869 870 870 871 871 871 872 872 873 874 874 875 875 876 876 877 877 877 878 878 878 878 878 879 878 878 879 878 878 878 877 877 876 876 876 875 877 878 876 874 872 871 871 870 870 870 870 869 869 868 867 866 865 865 865 864 863 863 862 861 860 859 858 856 855 854 852 852 851 850 849 847 846 845 843 841 840 838 837 835 832
866 867 867 868 869 869 870 870 870 871 871 872 872 873 874 874 874 875 875 876 876 876 877 877 877 877 878 878 878 878 878 878 878 878 877 877 877 877 876 875 876 878 878 878 875 872 872 871 870 870 870 869 869 868 867 866 865 864 864 863 862 862 861 860 859 858 857 856 855 853 852 851 850 849 848 847 846 845 843 842 840 838 837 835 833
865 866 867 867 868 868 869 869 870 870 871 871 871 872 872 873 873 874 875 875 875 875 876 876 876 877 877 877 877 877 877 878 878 878 877 877 877 877 877 876 876 876 877 879 877 873 872 872 871 871 870 869 868 868 867 866 865 864 863 862 861 861 860 859 858 857 857 856 854 853 852 850 850 848 847 846 845 844 843 842 840 838 837 835 833
864 865 866 866 867 867 867 868 869 869 870 870 871 871 871 872 872 873 873 874 874 874 875 875 875 876 876 876 876 876 877 877 877 877 877 877 877 877 877 876 877 876 876 877 877 875 873 872 872 871 870 869 868 867 866 865 864 863 862 861 860 860 859 858 857 857 856 855 853 852 851 850 849 848 847 845 844 844 843 841 840 838 837 835 834
863 863 864 865 865 866 866 867 867 868 868 869 870 870 870 871 871 872 872 873 873 873 874 874 874 875 875 875 875 875 876 876 876 876 877 877 877 876 876 876 876 876 876 876 876 874 873 872 871 871 870 869 868 867 866 864 863 862 861 860 860 859 858 857 856 856 855 854 852 851 850 849 848 847 846 845 843 843 842 841 840 838 837 835 834
862 862 863 863 864 865 865 866 866 866 867 867 868 869 869 870 870 871 871 872 872 872 873 873 873 874 874 874 875 875 875 875 875 875 876 876 876 876 876 876 875 876 875 875 875 873 872 872 871 870 869 868 867 866 865 864 862 861 860 860 859 858 858 857 855 854 853 853 851 850 849 848 847 846 845 844 843 842 841 840 839 838 836 835 834
861 862 862 862 863 864 864 865 865 866 866 866 867 868 868 869 869 869 870 871 871 871 872 872 872 873 873 873 873 874 874 874 874 874 875 875 875 875 875 875 875 875 874 874 874 873 871 870 870 869 869 868 866 865 865 863 862 861 860 859 858 857 857 855 854 853 852 851 850 849 848 847 846 845 844 843 842 841 840 839 838 837 836 834 833
860 860 861 861 862 863 863 864 864 865 866 866 866 866 867 867 868 868 869 869 870 871 871 871 872 872 872 872 872 872 873 873 873 873 873 873 873 874 874 874 874 873 873 873 872 872 871 869 869 868 868 867 866 864 864 863 862 861 860 859 858 856 855 854 853 852 851 850 849 848 847 846 845 844 843 842 841 840 839 838 837 836 835 834 833
858 859 860 860 861 861 862 862 863 864 864 865 865 865 866 866 867 867 868 868 869 869 870 870 871 871 871 871 871 872 872 872 872 872 872 872 872 872 872 872 872 872 872 872 871 871 870 869 868 867 867 866 865 864 863 862 861 860 859 858 857 855 854 853 852 851 850 849 848 847 846 845 844 843 842 841 840 839 837 836 836 835 834 833 832
856 857 858 859 859 860 860 861 861 862 863 863 864 864 864 865 866 866 866 867 868 868 869 869 870 870 870 870 870 871 871 871 871 871 871 871 871 871 871 871 871 871 871 871 870 870 869 868 867 866 866 865 863 862 862 861 859 858 857 856 855 854 853 852 851 849 848 847 846 845 844 843 843 842 841 840 839 837 836 835 834 833 832 831 831
854 855 856 857 858 858 859 859 860 860 861 862 862 862 863 864 864 865 865 865 866 866 867 868 868 869 869 869 869 870 870 870 870 870 870 870 870 870 869 869 869 869 869 869 869 868 868 867 866 865 864 864 863 861 860 860 859 857 856 855 853 852 851 850 849 848 847 845 844 844 843 842 841 840 839 838 837 836 835 833 832 832 831 830 829
853 854 854 855 856 856 857 857 858 859 859 860 860 861 861 862 863 863 863 864 864 864 865 866 866 867 867 867 868 868 869 869 869 869 869 869 869 868 868 868 868 868 867 867 867 867 866 866 865 864 863 863 862 860 859 859 858 857 856 854 852 850 849 848 847 845 844 843 843 842 841 840 839 838 837 837 836 835 834 832 831 830 829 828 828
851 852 853 854 854 854 855 855 856 857 857 858 859 859 860 860 861 861 861 862 862 862 863 864 864 865 865 866 866 866 867 867 868 868 868 868 868 867 867 867 866 866 866 865 865 865 865 864 864 863 862 861 860 859 858 857 856 855 855 854 852 849 848 847 845 843 842 841 840 839 838 838 837 836 835 834 834 833 832 831 829 828 827 827 826
849 850 851 852 852 852 853 853 854 855 855 856 856 857 858 858 859 859 860 860 860 860 861 861 862 863 863 863 864 864 864 865 865 866 866 866 866 866 865 865 865 865 864 864 864 863 863 863 862 861 861 860 859 858 857 856 855 854 853 853 851 849 848 846 843 841 840 839 838 837 836 836 835 834 833 832 831 831 830 829 828 827 826 825 824
847 848 849 849 850 850 850 851 851 852 853 853 854 855 856 856 857 857 858 858 859 859 859 859 860 860 861 861 861 862 862 862 862 863 863 863 864 863 863 863 864 864 863 862 862 861 861 861 860 860 859 858 857 856 855 854 853 853 852 851 849 848 847 845 841 839 838 837 837 835 833 833 833 832 830 829 828 828 828 827 826 825 824 824 823
845 846 846 847 847 847 848 848 849 849 850 851 852 853 854 854 855 855 856 857 857 857 857 857 858 858 858 859 859 859 860 860 860 860 860 860 861 861 861 861 862 862 861 861 860 859 859 859 858 858 858 856 855 854 854 852 852 851 850 849 848 846 845 844 842 839 837 836 836 835 832 831 831 830 828 827 826 826 826 825 824 824 823 822 822
844 844 844 845 845 845 845 845 846 846 847 848 849 851 851 852 853 854 854 855 855 855 855 855 855 855 856 856 856 856 857 857 857 858 858 858 858 858 858 859 859 859 859 859 858 857 857 856 856 855 855 854 853 852 851 850 850 849 848 847 847 845 844 843 841 838 836 836 835 834 831 828 828 828 825 824 825 824 824 823 823 822 822 821 821
842 842 843 843 843 843 843 843 844 844 845 846 847 848 849 850 851 851 852 852 852 853 853 853 853 853 853 853 853 853 854 854 854 855 855 855 855 855 855 856 856 856 856 856 856 856 855 854 853 852 852 851 850 849 849 849 848 847 846 845 844 843 842 841 839 837 835 835 834 833 830 827 827 826 824 823 823 822 822 822 821 821 820 819 819
842 842 842 841 841 842 842 842 842 842 843 844 845 846 847 848 849 849 849 850 850 850 850 851 851 850 851 851 851 851 851 851 851 852 852 852 852 852 852 852 852 853 853 853 853 853 852 852 851 849 849 849 848 847 847 847 846 845 844 843 842 841 840 838 837 835 834 833 833 832 829 826 825 825 822 821 821 820 819 819 819 819 818 818 817
842 842 842 841 841 841 841 841 841 841 842 843 844 845 846 847 847 847 847 848 848 848 848 848 848 848 848 848 848 848 848 848 848 849 849 849 849 849 849 849 849 849 849 849 850 850 849 849 848 847 846 846 845 845 844 844 843 842 842 841 840 839 837 835 834 833 831 831 831 831 828 824 824 824 821 819 820 818 817 817 816 816 816 815 815
842 842 842 842 842 841 840 840 840 840 841 841 842 843 845 846 846 846 846 846 846 846 846 846 846 846 846 846 846 846 845 845 845 846 846 847 847 847 846 845 845 845 845 846 846 846 846 845 845 844 844 843 843 842 842 841 840 839 839 838 837 837 835 833 831 830 828 828 828 828 826 822 821 822 819 818 818 816 815 815 814 813 813 813 813
843 842 842 842 842 841 840 839 839 839 839 839 840 841 843 845 845 846 845 845 845 844 844 844 845 844 845 844 844 844 843 843 843 843 844 844 844 844 843 842 842 842 841 842 843 843 842 842 842 841 841 840 840 839 838 838 837 837 837 835 834 834 834 832 830 828 826 825 824 826 825 821 819 819 818 817 816 814 813 812 812 811 811 811 810
843 843 842 842 842 842 840 839 838 838 838 838 838 838 839 842 844 846 846 844 844 843 843 843 843 842 842 842 842 842 841 841 841 841 841 842 841 841 840 839 839 838 838 838 839 838 838 838 838 838 837 837 836 835 834 834 834 835 834 832 831 832 831 830 828 826 824 821 821 823 822 819 817 818 817 815 814 812 811 810 810 809 809 809 808
841 842 842 842 842 841 840 838 838 838 837 837 837 837 837 838 840 844 846 845 843 842 841 841 841 840 840 840 840 840 839 839 839 838 839 839 838 838 838 837 836 835 834 835 836 835 835 835 834 834 833 833 832 831 831 830 831 831 831 829 829 829 828 827 826 826 824 819 817 820 819 817 816 817 816 815 812 809 808 808 808 807 807 807 806